Home > Weather > Hobart > Past weeks

Flag for Australia Past Weather in Hobart, Tasmania, Australia — Yesterday and Last 2 Weeks

Now
45 °F

Partly cloudy.


Feels Like: 38 °F
Forecast: 41 / 50 °F
Wind: 15 mph from Northwest

Location: Hobart Airport

Current Time: Jul 26, 2016 at 6:31:50 PM

Latest Report: Jul 26, 2016 at 6:00 PM


Visibility: N/A

Pressure: 29.50 "Hg

Humidity: 71%

Dew Point: 36 °F

Location of HobartLocation

Past Weather in Hobart — Graph

°F

Hobart Temperature Yesterday

Maximum temperature yesterday: 55 °F (at 2:30 PM)
Minimum temperature yesterday: 37 °F (at 6:30 AM)
Average temperature yesterday: 45 °F

High & Low Weather Summary for the Past Weeks

 TemperatureHumidityPressure
High61 °F (Jul 16, 1:00 PM)93% (Jul 21, 7:30 AM)30.30 "Hg (Jul 21, 7:30 AM)
Low36 °F (Jul 24, 9:30 PM)41% (Jul 19, 3:30 PM)28.80 "Hg (Jul 12, 9:00 PM)
Average49 °F65%29.67 "Hg
* Reported Jul 11 5:00 PM — Jul 26 5:00 PM, Hobart, Weather by CustomWeather, © 2016

Note: Actual official high and low records may vary slightly from our data, if they occured in-between our weather recording intervals... More about our weather records

Advertising

Hobart Weather History for the Previous 24 Hours

Scroll right to see more
 ConditionsComfort  
Time TempWeatherWind HumidityBarometerVisibility
5:00 PM
Tue, Jul 26
46 °FPartly cloudy.13 mph62%29.50 "HgN/A
4:30 PM48 °FScattered showers. Passing clouds.18 mph50%29.50 "HgN/A
4:00 PM48 °FScattered showers. Partly sunny.17 mph54%29.50 "HgN/A
3:30 PM48 °FScattered showers. Partly sunny.14 mph58%29.47 "HgN/A
3:00 PM48 °FPartly sunny.13 mph58%29.47 "HgN/A
2:00 PM48 °FScattered showers. Partly sunny.21 mph46%29.47 "HgN/A
1:46 PM48 °FScattered showers. Partly sunny.18 mph46%29.47 "HgN/A
1:00 PM50 °FPartly sunny.21 mph47%29.47 "HgN/A
12:30 PM50 °FBroken clouds.16 mph50%29.47 "HgN/A
12:00 PM48 °FBroken clouds.21 mph58%29.47 "HgN/A
11:30 AM48 °FBroken clouds.16 mph54%29.47 "HgN/A
11:00 AM46 °FPartly sunny.12 mph62%29.47 "HgN/A
10:30 AM46 °FScattered clouds.15 mph62%29.47 "HgN/A
10:00 AM45 °FSprinkles. Partly sunny.18 mph66%29.47 "HgN/A
9:30 AM45 °FScattered showers. Scattered clouds.15 mph66%29.45 "Hg6 mi
9:00 AM43 °FScattered clouds.15 mph71%29.45 "HgN/A
8:30 AM41 °FScattered showers. Scattered clouds.13 mph76%29.45 "HgN/A
8:00 AM41 °FScattered showers. Passing clouds.12 mph76%29.42 "HgN/A
7:00 AM39 °FScattered showers. Scattered clouds.16 mph81%29.39 "HgN/A
6:30 AM39 °FBroken clouds.16 mph87%29.39 "HgN/A
6:00 AM41 °FSprinkles. Partly cloudy.17 mph76%29.36 "HgN/A
5:00 AM41 °FSprinkles. Partly cloudy.17 mph81%29.33 "HgN/A
4:00 AM41 °FSprinkles. Passing clouds.20 mph81%29.27 "HgN/A
3:00 AM41 °FSprinkles. Partly cloudy.18 mph76%29.27 "HgN/A
2:00 AM41 °FSprinkles. Passing clouds.18 mph81%29.24 "HgN/A
1:30 AM43 °FSprinkles. Passing clouds.20 mph71%29.24 "HgN/A
1:04 AM43 °FSprinkles. Passing clouds.17 mph71%29.21 "HgN/A
12:30 AM45 °FClear.22 mph61%29.18 "HgN/A
12:00 AM43 °FSprinkles. Partly cloudy.9 mph71%29.21 "HgN/A
11:30 PM
Mon, Jul 25
43 °FLight rain. Partly cloudy.7 mph76%29.21 "HgN/A
11:00 PM45 °FPassing clouds.22 mph61%29.18 "HgN/A
10:30 PM46 °FPartly cloudy.23 mph57%29.18 "HgN/A
10:00 PM48 °FPassing clouds.28 mph54%29.15 "HgN/A
9:00 PM48 °FPartly cloudy.23 mph62%29.09 "HgN/A
8:00 PM50 °FLight rain. Partly cloudy.18 mph67%29.15 "HgN/A
7:00 PM50 °FPassing clouds.14 mph62%29.18 "HgN/A
6:00 PM48 °FPassing clouds.7 mph76%29.24 "HgN/A
Weather by CustomWeather, © 2016

See weather overviewHow to use our weather pages